| time (UTC) | temp F | wind direction | speed MPH | gust MPH | rain 1hr in | rain 24hr in | rain mn in | humidity % | barometer mb |
| 20260505070038 | 56 | 173 | 4.0 | 13.0 | 0.00 | 0.00 | 0.00 | 54 | 1009.2 |
| 20260505064542 | 56 | 140 | 5.0 | 16.0 | 0.00 | 0.00 | 0.00 | 54 | 1009.2 |
| 20260505063048 | 56 | 191 | 5.0 | 17.0 | 0.00 | 0.00 | 0.00 | 56 | 1009.3 |
| 20260505061546 | 57 | 225 | 5.0 | 13.0 | 0.00 | 0.00 | 0.00 | 57 | 1009.3 |
| 20260505060045 | 57 | 180 | 4.0 | 16.0 | 0.00 | 0.00 | 0.00 | 57 | 1009.2 |
| 20260505054545 | 57 | 182 | 5.0 | 22.0 | 0.00 | 0.00 | 0.00 | 56 | 1009.3 |
| 20260505053048 | 58 | 112 | 4.0 | 21.0 | 0.00 | 0.00 | 0.00 | 57 | 1009.2 |
| 20260505051545 | 58 | 73 | 8.0 | 22.0 | 0.00 | 0.00 | 0.00 | 56 | 1009.2 |
| 20260505041546 | 62 | 144 | 6.0 | 15.0 | 0.00 | 0.00 | 0.00 | 42 | 1008.3 |
| 20260505040045 | 62 | 195 | 3.0 | 7.0 | 0.00 | 0.00 | 0.00 | 42 | 1008.0 |
| 20260505034547 | 62 | 205 | 4.0 | 11.0 | 0.00 | 0.00 | 0.00 | 44 | 1007.7 |
| 20260505033041 | 62 | 204 | 4.0 | 10.0 | 0.00 | 0.00 | 0.00 | 43 | 1007.7 |
| 20260505031544 | 63 | 190 | 4.0 | 9.0 | 0.00 | 0.00 | 0.00 | 40 | 1007.7 |
| 20260505030045 | 64 | 232 | 2.0 | 12.0 | 0.00 | 0.00 | 0.00 | 40 | 1007.5 |
| 20260505024542 | 64 | 176 | 4.0 | 12.0 | 0.00 | 0.00 | 0.00 | 39 | 1007.4 |
| 20260505023049 | 64 | 247 | 2.0 | 15.0 | 0.00 | 0.00 | 0.00 | 38 | 1007.2 |
| 20260505021544 | 65 | 171 | 5.0 | 14.0 | 0.00 | 0.00 | 0.00 | 37 | 1007.1 |
| 20260505020043 | 65 | 174 | 6.0 | 16.0 | 0.00 | 0.00 | 0.00 | 37 | 1007.0 |
| 20260505014539 | 66 | 209 | 1.0 | 6.0 | 0.00 | 0.00 | 0.00 | 36 | 1006.9 |
| 20260505013046 | 68 | 154 | 0.0 | 6.0 | 0.00 | 0.00 | 0.00 | 37 | 1007.0 |
| 20260505011544 | 68 | 70 | 2.0 | 6.0 | 0.00 | 0.00 | 0.00 | 32 | 1007.1 |
| 20260505010104 | 68 | 5 | 2.0 | 8.0 | 0.00 | 0.00 | 0.00 | 32 | 1007.2 |
| 20260505004543 | 68 | 63 | 8.0 | 15.0 | 0.00 | 0.00 | 0.00 | 31 | 1007.4 |
| 20260505003044 | 68 | 69 | 6.0 | 14.0 | 0.00 | 0.00 | 0.00 | 31 | 1007.5 |
| 20260505001546 | 69 | 70 | 8.0 | 16.0 | 0.00 | 0.00 | 0.00 | 32 | 1007.6 |
| 20260505000046 | 69 | 55 | 9.0 | 21.0 | 0.00 | 0.00 | 0.00 | 33 | 1007.8 |
| 20260504234545 | 70 | 51 | 9.0 | 16.0 | 0.00 | 0.00 | 0.00 | 31 | 1007.9 |
| 20260504233042 | 71 | 61 | 10.0 | 16.0 | 0.00 | 0.00 | 0.00 | 30 | 1008.2 |
| 20260504231546 | 72 | 47 | 6.0 | 12.0 | 0.00 | 0.00 | 0.00 | 28 | 1008.0 |
| 20260504230046 | 72 | 71 | 9.0 | 14.0 | 0.00 | 0.00 | 0.00 | 29 | 1008.0 |
| 20260504224537 | 70 | 76 | 7.0 | 15.0 | 0.00 | 0.00 | 0.00 | 31 | 1008.1 |
| 20260504223058 | 72 | 113 | 12.0 | 20.0 | 0.00 | 0.00 | 0.00 | 28 | 1008.1 |
| 20260504221558 | 71 | 217 | 3.0 | 9.0 | 0.00 | 0.00 | 0.00 | 27 | 1008.1 |
| 20260504220044 | 71 | 236 | 6.0 | 12.0 | 0.00 | 0.00 | 0.00 | 27 | 1008.0 |
| 20260504214540 | 71 | 233 | 5.0 | 9.0 | 0.00 | 0.00 | 0.00 | 27 | 1008.2 |
| 20260504213058 | 72 | 223 | 5.0 | 12.0 | 0.00 | 0.00 | 0.00 | 24 | 1008.1 |
| 20260504211549 | 74 | 240 | 4.0 | 9.0 | 0.00 | 0.00 | 0.00 | 22 | 1008.1 |
| 20260504210043 | 74 | 236 | 2.0 | 8.0 | 0.00 | 0.00 | 0.00 | 23 | 1008.3 |
| 20260504204542 | 74 | 222 | 3.0 | 8.0 | 0.00 | 0.00 | 0.00 | 26 | 1008.4 |
| 20260504203048 | 74 | 257 | 1.0 | 6.0 | 0.00 | 0.00 | 0.00 | 26 | 1008.4 |
| 20260504201540 | 74 | 263 | 3.0 | 10.0 | 0.00 | 0.00 | 0.00 | 26 | 1008.6 |
| 20260504200046 | 75 | 253 | 2.0 | 9.0 | 0.00 | 0.00 | 0.00 | 25 | 1008.6 |
| 20260504194551 | 76 | 0 | 0.0 | 9.0 | 0.00 | 0.00 | 0.00 | 25 | 1008.7 |
| 20260504193043 | 79 | 315 | 6.0 | 10.0 | 0.00 | 0.00 | 0.00 | 22 | 1008.8 |
| 20260504191543 | 80 | 0 | 2.0 | 9.0 | 0.00 | 0.00 | 0.00 | 22 | 1008.9 |
| 20260504190042 | 79 | 183 | 2.0 | 9.0 | 0.00 | 0.00 | 0.00 | 23 | 1009.2 |
| 20260504184537 | 77 | 76 | 4.0 | 9.0 | 0.00 | 0.00 | 0.00 | 25 | 1009.4 |
| 20260504183045 | 77 | 146 | 2.0 | 11.0 | 0.00 | 0.00 | 0.00 | 24 | 1009.4 |
| 20260504181541 | 78 | 132 | 5.0 | 12.0 | 0.00 | 0.00 | 0.00 | 23 | 1009.6 |
| 20260504180048 | 77 | 211 | 2.0 | 12.0 | 0.00 | 0.00 | 0.00 | 25 | 1009.8 |
| 20260504174544 | 77 | 215 | 3.0 | 13.0 | 0.00 | 0.00 | 0.00 | 26 | 1009.9 |
| 20260504173046 | 76 | 121 | 3.0 | 13.0 | 0.00 | 0.00 | 0.00 | 27 | 1010.0 |
| 20260504171546 | 75 | 194 | 7.0 | 18.0 | 0.00 | 0.00 | 0.00 | 28 | 1010.1 |
| 20260504150111 | 65 | 193 | 3.0 | 11.0 | 0.00 | 0.00 | 0.00 | 39 | 1010.7 |
| 20260504081551 | 58 | 164 | 1.0 | 10.0 | 0.00 | 0.00 | 0.00 | 33 | 1010.2 |